KT2UU-13 Weather Reports


Display with metric or nautical units.
time (UTC)temp
F
wind
direction
speed
MPH
gust
MPH
rain 1hr
in
rain 24hr
in
rain mn
in
humidity
%
barometer
mb
20260506024038 70 43 0.0 0.0 0.00 0.00 0.00 56 1014.4
20260506023534 70 43 0.0 0.0 0.00 0.00 0.00 56 1014.2
20260506023032 70 43 0.0 0.0 0.00 0.00 0.00 56 1014.3
20260506022529 70 43 0.0 0.0 0.00 0.00 0.00 56 1014.1
20260506022027 71 43 0.0 0.0 0.00 0.00 0.00 55 1014.2
20260506021524 71 54 0.0 0.0 0.00 0.00 0.00 55 1014.0
20260506021021 71 43 0.0 0.0 0.00 0.00 0.00 55 1013.9
20260506020519 71 43 0.0 0.0 0.00 0.00 0.00 56 1013.8
20260506020016 71 43 0.0 1.0 0.00 0.00 0.00 55 1013.9
20260506015513 71 43 0.0 0.0 0.00 0.00 0.00 55 1013.7
20260506015010 71 58 0.0 0.0 0.00 0.00 0.00 54 1013.8
20260506014508 71 58 0.0 0.0 0.00 0.00 0.00 54 1013.8
20260506014003 71 58 0.0 0.0 0.00 0.00 0.00 54 1013.7
20260506013502 71 83 0.0 1.0 0.00 0.00 0.00 53 1013.7
20260506012957 71 128 0.0 0.0 0.00 0.00 0.00 52 1014.0
20260506012454 72 128 0.0 0.0 0.00 0.00 0.00 53 1014.0
20260506011951 72 132 0.0 1.0 0.00 0.00 0.00 50 1013.8
20260506011448 72 121 0.0 0.0 0.00 0.00 0.00 51 1013.8
20260506010945 72 121 0.0 1.0 0.00 0.00 0.00 51 1013.7
20260506010444 72 131 0.0 0.0 0.00 0.00 0.00 50 1013.7
20260506005939 72 131 0.0 0.0 0.00 0.00 0.00 50 1013.5
20260506005438 72 131 0.0 0.0 0.00 0.00 0.00 49 1013.7
20260506004932 72 63 0.0 0.0 0.00 0.00 0.00 50 1013.6
20260506004431 72 136 0.0 1.0 0.00 0.00 0.00 48 1013.4
20260506003927 72 102 0.0 1.0 0.00 0.00 0.00 49 1013.5
20260506003423 71 109 0.0 0.0 0.00 0.00 0.00 50 1013.5
20260506002920 71 109 0.0 1.0 0.00 0.00 0.00 49 1013.4
20260506002416 71 109 0.0 1.0 0.00 0.00 0.00 49 1013.6
20260506001911 72 109 0.0 0.0 0.00 0.00 0.00 49 1013.4
20260506001409 72 109 0.0 0.0 0.00 0.00 0.00 49 1013.5
20260506000906 72 110 0.0 1.0 0.00 0.00 0.00 48 1013.4
20260506000404 72 88 0.0 0.0 0.00 0.00 0.00 47 1013.5
20260505235900 73 88 0.0 0.0 0.00 0.00 0.00 50 1013.5
20260505235358 73 106 0.0 0.0 0.00 0.00 0.00 49 1013.4
20260505234855 73 106 0.0 0.0 0.00 0.00 0.00 48 1013.5
20260505234352 74 105 0.0 0.0 0.00 0.00 0.00 48 1013.6
20260505233849 74 105 0.0 0.0 0.00 0.00 0.00 48 1013.4
20260505233347 75 105 0.0 0.0 0.00 0.00 0.00 47 1013.6
20260505232844 76 105 0.0 0.0 0.00 0.00 0.00 46 1013.9
20260505232342 76 105 0.0 0.0 0.00 0.00 0.00 45 1013.8
20260505231838 76 105 0.0 0.0 0.00 0.00 0.00 44 1013.6
20260505231336 76 99 0.0 1.0 0.00 0.00 0.00 44 1013.6
20260505230834 76 99 0.0 2.0 0.00 0.00 0.00 44 1013.6
20260505230331 77 128 0.0 1.0 0.00 0.00 0.00 43 1013.7
20260505225827 77 107 0.0 0.0 0.00 0.00 0.00 43 1013.7
20260505225325 78 116 0.0 1.0 0.00 0.00 0.00 43 1013.6
20260505224820 78 54 0.0 0.0 0.00 0.00 0.00 42 1013.6
20260505224318 77 117 0.0 0.0 0.00 0.00 0.00 44 1013.7
20260505223815 75 106 0.0 0.0 0.00 0.00 0.00 49 1013.7
20260505223312 75 106 0.0 0.0 0.00 0.00 0.00 48 1013.8
20260505222807 75 352 0.0 0.0 0.00 0.00 0.00 47 1013.8
20260505222305 75 352 1.0 1.0 0.00 0.00 0.00 45 1013.6
20260505221801 76 352 0.0 0.0 0.00 0.00 0.00 46 1013.6
20260505221257 75 352 0.0 0.0 0.00 0.00 0.00 46 1013.6
20260505220754 76 352 0.0 0.0 0.00 0.00 0.00 45 1013.7
20260505220252 76 352 0.0 0.0 0.00 0.00 0.00 42 1013.8
20260505215750 76 352 0.0 0.0 0.00 0.00 0.00 43 1013.8
20260505215247 76 83 0.0 0.0 0.00 0.00 0.00 44 1013.8
20260505214745 76 8 0.0 1.0 0.00 0.00 0.00 44 1013.9
20260505214242 76 106 0.0 1.0 0.00 0.00 0.00 40 1014.1
20260505213739 76 139 0.0 0.0 0.00 0.00 0.00 43 1013.9
20260505213236 76 92 1.0 1.0 0.00 0.00 0.00 41 1014.0
20260505212732 76 92 0.0 1.0 0.00 0.00 0.00 41 1013.7
20260505212230 76 182 0.0 1.0 0.00 0.00 0.00 42 1013.5
20260505211727 76 121 0.0 0.0 0.00 0.00 0.00 42 1013.7
20260505211224 77 135 2.0 2.0 0.00 0.00 0.00 40 1013.6
20260505210720 76 115 0.0 1.0 0.00 0.00 0.00 40 1013.6
20260505210217 76 157 0.0 1.0 0.00 0.00 0.00 41 1013.7
20260505205715 77 107 0.0 1.0 0.00 0.00 0.00 41 1013.7
20260505205213 78 64 1.0 3.0 0.00 0.00 0.00 39 1013.8
20260505204708 77 91 0.0 6.0 0.00 0.00 0.00 40 1014.0
20260505204206 78 133 1.0 2.0 0.00 0.00 0.00 39 1013.9
20260505203658 78 97 1.0 2.0 0.00 0.00 0.00 40 1014.2
20260505203155 79 77 0.0 2.0 0.00 0.00 0.00 40 1014.0
20260505202650 79 323 2.0 7.0 0.00 0.00 0.00 39 1014.1
20260505202147 79 94 2.0 2.0 0.00 0.00 0.00 38 1014.4
20260505201643 79 336 0.0 1.0 0.00 0.00 0.00 41 1014.3
20260505201141 79 2 1.0 3.0 0.00 0.00 0.00 41 1014.4
20260505200639 78 123 2.0 2.0 0.00 0.00 0.00 40 1014.5
20260505200136 79 123 0.0 3.0 0.00 0.00 0.00 40 1014.4
20260505195632 78 190 3.0 3.0 0.00 0.00 0.00 38 1014.4
20260505195129 78 128 2.0 2.0 0.00 0.00 0.00 39 1014.5
20260505194626 79 64 1.0 6.0 0.00 0.00 0.00 36 1014.6
20260505194122 78 109 0.0 1.0 0.00 0.00 0.00 43 1014.5
20260505193619 78 123 1.0 4.0 0.00 0.00 0.00 40 1014.5
20260505193116 78 110 1.0 3.0 0.00 0.00 0.00 39 1014.9
20260505192615 77 135 2.0 6.0 0.00 0.00 0.00 39 1014.9
20260505192112 77 82 0.0 2.0 0.00 0.00 0.00 41 1015.1
20260505191610 78 42 2.0 3.0 0.00 0.00 0.00 40 1015.2
20260505191108 77 61 0.0 1.0 0.00 0.00 0.00 45 1015.3
20260505190603 78 129 2.0 3.0 0.00 0.00 0.00 40 1015.4
20260505190058 79 166 0.0 2.0 0.00 0.00 0.00 41 1015.5
20260505185555 79 122 2.0 2.0 0.00 0.00 0.00 43 1015.5
20260505185052 78 225 2.0 2.0 0.00 0.00 0.00 40 1015.6
20260505184548 78 0 1.0 2.0 0.00 0.00 0.00 41 1015.6
20260505184045 77 118 1.0 2.0 0.00 0.00 0.00 42 1015.3
20260505183542 77 113 0.0 3.0 0.00 0.00 0.00 41 1015.6
20260505183040 77 85 0.0 2.0 0.00 0.00 0.00 44 1015.5
20260505182536 78 123 3.0 4.0 0.00 0.00 0.00 41 1015.5
20260505182032 78 86 1.0 3.0 0.00 0.00 0.00 40 1015.6
20260505181529 79 122 1.0 2.0 0.00 0.00 0.00 42 1015.6
20260505181027 77 113 2.0 3.0 0.00 0.00 0.00 41 1015.7
20260505180522 77 132 1.0 3.0 0.00 0.00 0.00 42 1015.6
20260505180021 77 334 0.0 3.0 0.00 0.00 0.00 44 1015.4
20260505175515 78 73 2.0 4.0 0.00 0.00 0.00 45 1015.5
20260505175012 77 59 1.0 2.0 0.00 0.00 0.00 48 1015.8
20260505174509 76 114 2.0 4.0 0.00 0.00 0.00 48 1016.0
20260505174005 78 81 1.0 6.0 0.00 0.00 0.00 48 1016.2
20260505173502 76 336 0.0 3.0 0.00 0.00 0.00 50 1016.3
20260505172958 76 101 1.0 2.0 0.00 0.00 0.00 50 1016.3
20260505172457 76 101 1.0 4.0 0.00 0.00 0.00 50 1016.3
20260505171956 75 62 0.0 0.0 0.00 0.00 0.00 52 1016.7
20260505171448 76 350 0.0 2.0 0.00 0.00 0.00 52 1016.5
20260505170944 75 3 2.0 6.0 0.00 0.00 0.00 52 1016.6
20260505170441 74 126 1.0 6.0 0.00 0.00 0.00 50 1016.5
20260505165936 75 102 1.0 3.0 0.00 0.00 0.00 50 1016.7
20260505165433 75 342 0.0 3.0 0.00 0.00 0.00 50 1016.7
20260505164928 74 19 1.0 2.0 0.00 0.00 0.00 48 1016.8
20260505164425 74 103 3.0 11.0 0.00 0.00 0.00 50 1016.5
20260505163923 75 79 1.0 3.0 0.00 0.00 0.00 47 1016.6
20260505163422 75 56 2.0 3.0 0.00 0.00 0.00 51 1016.8
20260505162920 75 144 1.0 3.0 0.00 0.00 0.00 49 1016.7
20260505162416 74 351 0.0 1.0 0.00 0.00 0.00 52 1016.5
20260505161913 75 116 1.0 2.0 0.00 0.00 0.00 51 1016.3
20260505161409 74 355 0.0 2.0 0.00 0.00 0.00 57 1016.0
20260505160907 74 45 0.0 1.0 0.00 0.00 0.00 52 1016.2
20260505160405 73 153 3.0 4.0 0.00 0.00 0.00 53 1016.3
20260505153344 71 147 3.0 3.0 0.00 0.00 0.00 60 1016.8
20260505152840 71 23 0.0 2.0 0.00 0.00 0.00 63 1017.1
20260505152338 71 2 0.0 0.0 0.00 0.00 0.00 63 1017.0
20260505151832 70 3 0.0 1.0 0.00 0.00 0.00 65 1016.8
20260505151328 71 355 0.0 0.0 0.00 0.00 0.00 61 1016.8
20260505150825 70 354 0.0 0.0 0.00 0.00 0.00 63 1016.9
20260505150322 70 352 0.0 1.0 0.00 0.00 0.00 61 1016.6
20260505140247 64 227 0.0 1.0 0.00 0.00 0.00 71 1017.1
20260505130211 61 140 1.0 1.0 0.00 0.00 0.00 75 1016.5
20260505124701 61 138 1.0 2.0 0.00 0.00 0.00 73 1016.1
20260505124157 60 135 0.0 0.0 0.00 0.00 0.00 76 1015.8
20260505123654 60 135 0.0 0.0 0.00 0.00 0.00 76 1016.1
20260505123150 59 135 0.0 0.0 0.00 0.00 0.00 77 1016.0
20260505122647 58 135 0.0 0.0 0.00 0.00 0.00 81 1016.0
20260505122144 59 135 0.0 0.0 0.00 0.00 0.00 81 1016.1
20260505121640 59 135 0.0 0.0 0.00 0.00 0.00 81 1015.9
20260505121137 60 135 0.0 0.0 0.00 0.00 0.00 79 1015.8
20260505120633 61 135 0.0 0.0 0.00 0.00 0.00 78 1015.6
20260505120130 60 135 0.0 0.0 0.00 0.00 0.00 77 1015.7
20260505115624 60 135 0.0 0.0 0.00 0.00 0.00 74 1015.8
20260505115121 61 135 0.0 0.0 0.00 0.00 0.00 75 1015.6
20260505114618 59 135 0.0 0.0 0.00 0.00 0.00 82 1015.6
20260505114114 56 135 0.0 0.0 0.00 0.00 0.00 88 1015.6
20260505113611 53 135 0.0 0.0 0.00 0.00 0.00 92 1015.7
20260505113108 52 135 0.0 0.0 0.00 0.00 0.00 92 1015.5
20260505112604 51 135 0.0 0.0 0.00 0.00 0.00 93 1015.3
20260505112103 50 135 0.0 0.0 0.00 0.00 0.00 93 1015.2
20260505111601 50 135 0.0 0.0 0.00 0.00 0.00 92 1015.3
20260505111057 50 135 0.0 0.0 0.00 0.00 0.00 92 1015.1
20260505110554 49 135 0.0 0.0 0.00 0.00 0.00 93 1015.1
20260505102027 49 135 0.0 0.0 0.00 0.00 0.00 92 1015.0
20260505101525 49 135 0.0 0.0 0.00 0.00 0.00 92 1014.9
20260505101021 49 135 0.0 0.0 0.00 0.00 0.00 92 1015.0
20260505100519 49 135 0.0 0.0 0.00 0.00 0.00 92 1014.9
20260505100015 49 135 0.0 0.0 0.00 0.00 0.00 91 1014.8
20260505095511 49 135 0.0 0.0 0.00 0.00 0.00 91 1014.8
20260505095008 49 135 0.0 0.0 0.00 0.00 0.00 92 1015.1
20260505094504 49 135 0.0 0.0 0.00 0.00 0.00 91 1015.0
20260505094001 49 135 0.0 0.0 0.00 0.00 0.00 91 1015.3
20260505093457 50 135 0.0 0.0 0.00 0.00 0.00 91 1015.3
20260505092955 50 135 0.0 0.0 0.00 0.00 0.00 91 1015.3
20260505092452 50 135 0.0 0.0 0.00 0.00 0.00 90 1015.0
20260505091950 50 135 0.0 0.0 0.00 0.00 0.00 90 1015.0
20260505091447 50 135 0.0 0.0 0.00 0.00 0.00 90 1014.7
20260505090945 50 136 0.0 0.0 0.00 0.00 0.00 90 1015.0
20260505090443 50 136 0.0 0.0 0.00 0.00 0.00 90 1015.1
20260505085940 50 136 0.0 0.0 0.00 0.00 0.00 90 1015.1
20260505085438 50 136 0.0 0.0 0.00 0.00 0.00 90 1015.0
20260505084936 50 136 0.0 0.0 0.00 0.00 0.00 89 1015.2
20260505084434 51 136 0.0 0.0 0.00 0.00 0.00 88 1015.2
20260505083931 51 146 0.0 0.0 0.00 0.00 0.00 87 1015.4
20260505083428 51 146 0.0 0.0 0.00 0.00 0.00 87 1015.4
20260505082924 51 189 1.0 2.0 0.00 0.00 0.00 86 1015.3
20260505082420 51 175 0.0 0.0 0.00 0.00 0.00 87 1015.3
20260505081918 51 117 0.0 0.0 0.00 0.00 0.00 86 1015.4
20260505081415 51 117 0.0 0.0 0.00 0.00 0.00 86 1015.2
20260505080911 52 108 0.0 0.0 0.00 0.00 0.00 85 1015.1
20260505080407 52 108 0.0 0.0 0.00 0.00 0.00 84 1015.3
20260505075903 52 108 0.0 0.0 0.00 0.00 0.00 84 1015.2
20260505075359 52 108 0.0 0.0 0.00 0.00 0.00 83 1015.1
20260505074857 52 108 0.0 0.0 0.00 0.00 0.00 83 1015.1
20260505074354 53 108 0.0 0.0 0.00 0.00 0.00 82 1015.1
20260505073851 53 108 0.0 0.0 0.00 0.00 0.00 82 1015.3
20260505073344 53 108 0.0 1.0 0.00 0.00 0.00 81 1015.1
20260505072840 54 108 0.0 0.0 0.00 0.00 0.00 80 1015.0
20260505072336 54 108 0.0 0.0 0.00 0.00 0.00 79 1015.2
20260505071832 55 108 0.0 0.0 0.00 0.00 0.00 78 1015.3
20260505071329 55 108 1.0 1.0 0.00 0.00 0.00 77 1015.2
20260505070827 55 139 0.0 0.0 0.00 0.00 0.00 76 1015.1
20260505070323 56 139 0.0 1.0 0.00 0.00 0.00 77 1015.2
20260505065818 56 139 0.0 0.0 0.00 0.00 0.00 74 1015.3
20260505065315 56 139 0.0 0.0 0.00 0.00 0.00 73 1015.2
20260505064813 56 139 0.0 0.0 0.00 0.00 0.00 70 1015.1
20260505064309 57 139 0.0 0.0 0.00 0.00 0.00 70 1015.3
20260505063808 57 139 0.0 0.0 0.00 0.00 0.00 70 1015.4
20260505063303 57 139 0.0 0.0 0.00 0.00 0.00 69 1015.3
20260505062800 58 139 0.0 0.0 0.00 0.00 0.00 69 1015.3
20260505062258 58 139 0.0 0.0 0.00 0.00 0.00 69 1015.3
20260505061754 58 139 0.0 0.0 0.00 0.00 0.00 68 1015.3
20260505061252 58 139 0.0 0.0 0.00 0.00 0.00 67 1015.4
20260505060749 58 139 0.0 0.0 0.00 0.00 0.00 66 1015.2
20260505060246 58 139 0.0 0.0 0.00 0.00 0.00 67 1015.2
20260505041336 59 139 0.0 0.0 0.00 0.00 0.00 65 1015.8
20260505040833 60 139 0.0 0.0 0.00 0.00 0.00 67 1015.6
20260505040331 61 139 0.0 0.0 0.00 0.00 0.00 65 1015.6
20260505035828 61 139 0.0 0.0 0.00 0.00 0.00 63 1015.4
20260505035323 62 139 0.0 0.0 0.00 0.00 0.00 63 1015.7
20260505034821 63 139 0.0 1.0 0.00 0.00 0.00 60 1015.6
20260505034317 63 132 0.0 0.0 0.00 0.00 0.00 59 1015.8
20260505033815 62 132 0.0 0.0 0.00 0.00 0.00 61 1015.7
20260505033311 62 132 0.0 0.0 0.00 0.00 0.00 60 1015.9
20260505032810 61 132 0.0 0.0 0.00 0.00 0.00 62 1015.7
20260505032305 61 132 0.0 0.0 0.00 0.00 0.00 63 1015.8
20260505031803 61 132 0.0 0.0 0.00 0.00 0.00 63 1015.7
20260505031259 62 132 0.0 0.0 0.00 0.00 0.00 62 1015.5
20260505030757 62 132 0.0 0.0 0.00 0.00 0.00 61 1015.7
20260505030253 63 132 0.0 0.0 0.00 0.00 0.00 61 1015.5
20260505025748 63 132 0.0 0.0 0.00 0.00 0.00 61 1015.6
20260505025246 62 132 0.0 0.0 0.00 0.00 0.00 60 1015.6
20260505024744 61 132 0.0 0.0 0.00 0.00 0.00 61 1015.6